| time (UTC) | temp F | wind direction | speed MPH | gust MPH | rain 1hr in | rain 24hr in | rain mn in | humidity % | barometer mb |
| 20260902143818 | 66 | 144 | 1.0 | 0.0 | 0.00 | 0.00 | 0.00 | 48 | 964.4 |
| 20260902143313 | 65 | 117 | 2.0 | 0.0 | 0.00 | 0.00 | 0.00 | 49 | 964.4 |
| 20260902142739 | 65 | 108 | 2.0 | 0.0 | 0.00 | 0.00 | 0.00 | 48 | 964.4 |
| 20260902142239 | 64 | 328 | 0.0 | 0.0 | 0.00 | 0.00 | 0.00 | 50 | 964.1 |
| 20260902141741 | 62 | 328 | 0.0 | 0.0 | 0.00 | 0.00 | 0.00 | 55 | 964.1 |
| 20260902141239 | 61 | 329 | 0.0 | 0.0 | 0.00 | 0.00 | 0.00 | 57 | 964.1 |
| 20260902140751 | 59 | 328 | 0.0 | 0.0 | 0.00 | 0.00 | 0.00 | 60 | 963.8 |
| 20260902140238 | 57 | 328 | 0.0 | 0.0 | 0.00 | 0.00 | 0.00 | 64 | 963.8 |
| 20260902135740 | 54 | 323 | 0.0 | 0.0 | 0.00 | 0.00 | 0.00 | 67 | 963.8 |
| 20260902135238 | 53 | 323 | 0.0 | 0.0 | 0.00 | 0.00 | 0.00 | 69 | 963.8 |
| 20260902134736 | 52 | 323 | 0.0 | 0.0 | 0.00 | 0.00 | 0.00 | 71 | 963.8 |
| 20260902134240 | 52 | 323 | 0.0 | 0.0 | 0.00 | 0.00 | 0.00 | 70 | 963.8 |
| 20260902133740 | 52 | 312 | 0.0 | 0.0 | 0.00 | 0.00 | 0.00 | 71 | 963.4 |
| 20260902133241 | 52 | 312 | 0.0 | 0.0 | 0.00 | 0.00 | 0.00 | 71 | 963.4 |
| 20260902132743 | 52 | 312 | 0.0 | 0.0 | 0.00 | 0.00 | 0.00 | 69 | 963.4 |
| 20260902132238 | 53 | 312 | 0.0 | 0.0 | 0.00 | 0.00 | 0.00 | 68 | 963.4 |
| 20260902131742 | 53 | 312 | 3.0 | 0.0 | 0.00 | 0.00 | 0.00 | 67 | 963.8 |
| 20260902131238 | 53 | 312 | 3.0 | 0.0 | 0.00 | 0.00 | 0.00 | 67 | 963.8 |
| 20260902130741 | 53 | 325 | 0.0 | 0.0 | 0.00 | 0.00 | 0.00 | 72 | 963.8 |
| 20260902130238 | 53 | 325 | 1.0 | 0.0 | 0.00 | 0.00 | 0.00 | 75 | 963.8 |
| 20260902125739 | 52 | 318 | 1.0 | 0.0 | 0.00 | 0.00 | 0.00 | 74 | 963.8 |
| 20260902125237 | 52 | 310 | 0.0 | 0.0 | 0.00 | 0.00 | 0.00 | 74 | 963.8 |
| 20260902124743 | 52 | 310 | 0.0 | 0.0 | 0.00 | 0.00 | 0.00 | 74 | 963.8 |
| 20260902124240 | 53 | 310 | 0.0 | 0.0 | 0.00 | 0.00 | 0.00 | 74 | 963.8 |
| 20260902123748 | 53 | 310 | 0.0 | 0.0 | 0.00 | 0.00 | 0.00 | 73 | 963.8 |
| 20260902123237 | 53 | 310 | 0.0 | 0.0 | 0.00 | 0.00 | 0.00 | 73 | 963.8 |
| 20260902122740 | 53 | 310 | 0.0 | 0.0 | 0.00 | 0.00 | 0.00 | 73 | 963.8 |
| 20260902122242 | 54 | 310 | 0.0 | 0.0 | 0.00 | 0.00 | 0.00 | 71 | 963.8 |
| 20260902121737 | 54 | 310 | 0.0 | 0.0 | 0.00 | 0.00 | 0.00 | 74 | 964.1 |
| 20260902121236 | 54 | 310 | 0.0 | 0.0 | 0.00 | 0.00 | 0.00 | 73 | 964.1 |
| 20260902120732 | 54 | 310 | 0.0 | 0.0 | 0.00 | 0.00 | 0.00 | 72 | 964.1 |
| 20260902120252 | 55 | 310 | 0.0 | 0.0 | 0.00 | 0.00 | 0.00 | 72 | 964.1 |
| 20260902115739 | 55 | 310 | 0.0 | 0.0 | 0.00 | 0.00 | 0.00 | 71 | 964.1 |
| 20260902115257 | 55 | 310 | 0.0 | 0.0 | 0.00 | 0.00 | 0.00 | 72 | 964.1 |
| 20260902114743 | 55 | 312 | 1.0 | 0.0 | 0.00 | 0.00 | 0.00 | 72 | 964.1 |
| 20260902114237 | 55 | 312 | 1.0 | 0.0 | 0.00 | 0.00 | 0.00 | 72 | 964.1 |
| 20260902113744 | 55 | 321 | 1.0 | 0.0 | 0.00 | 0.00 | 0.00 | 71 | 964.1 |
| 20260902113240 | 56 | 321 | 0.0 | 0.0 | 0.00 | 0.00 | 0.00 | 68 | 964.1 |
| 20260902112740 | 56 | 321 | 0.0 | 0.0 | 0.00 | 0.00 | 0.00 | 63 | 964.1 |
| 20260902112255 | 56 | 321 | 2.0 | 0.0 | 0.00 | 0.00 | 0.00 | 63 | 964.1 |
| 20260902111739 | 56 | 320 | 2.0 | 0.0 | 0.00 | 0.00 | 0.00 | 67 | 964.1 |
| 20260902111241 | 56 | 328 | 1.0 | 0.0 | 0.00 | 0.00 | 0.00 | 65 | 964.1 |
| 20260902110737 | 56 | 326 | 2.0 | 0.0 | 0.00 | 0.00 | 0.00 | 64 | 964.1 |
| 20260902110240 | 56 | 317 | 0.0 | 0.0 | 0.00 | 0.00 | 0.00 | 63 | 964.1 |
| 20260902105757 | 57 | 301 | 0.0 | 0.0 | 0.00 | 0.00 | 0.00 | 62 | 964.1 |
| 20260902105245 | 58 | 301 | 0.0 | 0.0 | 0.00 | 0.00 | 0.00 | 60 | 964.1 |
| 20260902104736 | 59 | 307 | 0.0 | 0.0 | 0.00 | 0.00 | 0.00 | 59 | 964.1 |
| 20260902104242 | 60 | 288 | 0.0 | 0.0 | 0.00 | 0.00 | 0.00 | 61 | 964.1 |
| 20260902103737 | 60 | 341 | 3.0 | 0.0 | 0.00 | 0.00 | 0.00 | 59 | 964.1 |
| 20260902103239 | 60 | 201 | 3.0 | 0.0 | 0.00 | 0.00 | 0.00 | 61 | 964.1 |
| 20260902102741 | 59 | 196 | 3.0 | 0.0 | 0.00 | 0.00 | 0.00 | 70 | 964.1 |
| 20260902102241 | 59 | 237 | 3.0 | 0.0 | 0.00 | 0.00 | 0.00 | 71 | 964.1 |
| 20260902101737 | 58 | 209 | 1.0 | 0.0 | 0.00 | 0.00 | 0.00 | 63 | 964.1 |
| 20260902101304 | 58 | 239 | 1.0 | 0.0 | 0.00 | 0.00 | 0.00 | 66 | 964.1 |
| 20260902100737 | 58 | 215 | 2.0 | 0.0 | 0.00 | 0.00 | 0.00 | 65 | 964.1 |
| 20260902100238 | 58 | 218 | 3.0 | 0.0 | 0.00 | 0.00 | 0.00 | 65 | 964.1 |
| 20260902095737 | 57 | 221 | 2.0 | 0.0 | 0.00 | 0.00 | 0.00 | 63 | 964.4 |
| 20260902095236 | 57 | 220 | 0.0 | 0.0 | 0.00 | 0.00 | 0.00 | 60 | 964.1 |
| 20260902094737 | 57 | 220 | 0.0 | 0.0 | 0.00 | 0.00 | 0.00 | 59 | 964.4 |
| 20260902094303 | 57 | 220 | 0.0 | 0.0 | 0.00 | 0.00 | 0.00 | 58 | 964.4 |
| 20260902093801 | 58 | 273 | 0.0 | 0.0 | 0.00 | 0.00 | 0.00 | 59 | 964.4 |
| 20260902093300 | 58 | 326 | 0.0 | 0.0 | 0.00 | 0.00 | 0.00 | 57 | 964.4 |
| 20260902092739 | 59 | 282 | 0.0 | 0.0 | 0.00 | 0.00 | 0.00 | 57 | 964.4 |
| 20260902092258 | 59 | 281 | 0.0 | 0.0 | 0.00 | 0.00 | 0.00 | 56 | 964.4 |
| 20260902091759 | 60 | 282 | 0.0 | 0.0 | 0.00 | 0.00 | 0.00 | 56 | 964.4 |
| 20260902091258 | 60 | 282 | 0.0 | 0.0 | 0.00 | 0.00 | 0.00 | 57 | 964.4 |
| 20260902090759 | 60 | 234 | 0.0 | 0.0 | 0.00 | 0.00 | 0.00 | 57 | 964.4 |
| 20260902090300 | 60 | 303 | 0.0 | 0.0 | 0.00 | 0.00 | 0.00 | 55 | 964.4 |
| 20260902085758 | 61 | 303 | 0.0 | 0.0 | 0.00 | 0.00 | 0.00 | 55 | 964.4 |
| 20260902085259 | 61 | 303 | 1.0 | 0.0 | 0.00 | 0.00 | 0.00 | 54 | 964.4 |
| 20260902084758 | 62 | 237 | 2.0 | 0.0 | 0.00 | 0.00 | 0.00 | 55 | 964.4 |
| 20260902084259 | 62 | 103 | 3.0 | 0.0 | 0.00 | 0.00 | 0.00 | 53 | 964.4 |
| 20260902083757 | 62 | 246 | 3.0 | 0.0 | 0.00 | 0.00 | 0.00 | 52 | 964.4 |
| 20260902083257 | 63 | 276 | 3.0 | 0.0 | 0.00 | 0.00 | 0.00 | 51 | 964.4 |
| 20260902082756 | 63 | 189 | 3.0 | 0.0 | 0.00 | 0.00 | 0.00 | 51 | 964.4 |
| 20260902082258 | 63 | 238 | 3.0 | 0.0 | 0.00 | 0.00 | 0.00 | 51 | 964.4 |
| 20260902081757 | 63 | 303 | 2.0 | 0.0 | 0.00 | 0.00 | 0.00 | 50 | 964.4 |
| 20260902081255 | 63 | 305 | 2.0 | 0.0 | 0.00 | 0.00 | 0.00 | 50 | 964.4 |
| 20260902080756 | 64 | 201 | 2.0 | 0.0 | 0.00 | 0.00 | 0.00 | 49 | 964.4 |
| 20260902080255 | 64 | 155 | 2.0 | 0.0 | 0.00 | 0.00 | 0.00 | 50 | 964.4 |
| 20260902075754 | 64 | 273 | 4.0 | 0.0 | 0.00 | 0.00 | 0.00 | 50 | 964.4 |
| 20260902075254 | 63 | 257 | 5.0 | 0.0 | 0.00 | 0.00 | 0.00 | 50 | 964.4 |
| 20260902074753 | 63 | 290 | 0.0 | 0.0 | 0.00 | 0.00 | 0.00 | 52 | 964.1 |
| 20260902074254 | 63 | 291 | 1.0 | 0.0 | 0.00 | 0.00 | 0.00 | 50 | 964.1 |
| 20260902073753 | 64 | 290 | 3.0 | 0.0 | 0.00 | 0.00 | 0.00 | 51 | 964.1 |
| 20260902073253 | 64 | 274 | 3.0 | 0.0 | 0.00 | 0.00 | 0.00 | 49 | 964.1 |
| 20260902072752 | 65 | 306 | 2.0 | 0.0 | 0.00 | 0.00 | 0.00 | 49 | 964.1 |
| 20260902072252 | 65 | 249 | 3.0 | 0.0 | 0.00 | 0.00 | 0.00 | 48 | 963.8 |
| 20260902071751 | 66 | 131 | 3.0 | 0.0 | 0.00 | 0.00 | 0.00 | 47 | 963.8 |
| 20260902071252 | 66 | 261 | 3.0 | 0.0 | 0.00 | 0.00 | 0.00 | 48 | 963.8 |
| 20260902070751 | 66 | 307 | 3.0 | 0.0 | 0.00 | 0.00 | 0.00 | 44 | 963.8 |
| 20260902070252 | 67 | 238 | 3.0 | 0.0 | 0.00 | 0.00 | 0.00 | 45 | 963.8 |
| 20260902065752 | 67 | 262 | 3.0 | 0.0 | 0.00 | 0.00 | 0.00 | 47 | 963.8 |
| 20260902065251 | 67 | 273 | 4.0 | 0.0 | 0.00 | 0.00 | 0.00 | 47 | 963.8 |
| 20260902064750 | 67 | 233 | 4.0 | 0.0 | 0.00 | 0.00 | 0.00 | 47 | 963.8 |
| 20260902064250 | 67 | 235 | 5.0 | 0.0 | 0.00 | 0.00 | 0.00 | 46 | 963.8 |
| 20260902063749 | 67 | 318 | 4.0 | 0.0 | 0.00 | 0.00 | 0.00 | 46 | 963.8 |
| 20260902063250 | 67 | 246 | 6.0 | 0.0 | 0.00 | 0.00 | 0.00 | 46 | 963.8 |
| 20260902062750 | 66 | 211 | 4.0 | 0.0 | 0.00 | 0.00 | 0.00 | 46 | 963.4 |
| 20260902062249 | 67 | 268 | 0.0 | 0.0 | 0.00 | 0.00 | 0.00 | 43 | 963.4 |
| 20260902061751 | 68 | 267 | 2.0 | 0.0 | 0.00 | 0.00 | 0.00 | 43 | 963.4 |
| 20260902061248 | 68 | 37 | 3.0 | 0.0 | 0.00 | 0.00 | 0.00 | 43 | 963.4 |
| 20260902060750 | 69 | 254 | 4.0 | 0.0 | 0.00 | 0.00 | 0.00 | 42 | 963.4 |
| 20260902060248 | 69 | 254 | 4.0 | 0.0 | 0.00 | 0.00 | 0.00 | 42 | 963.4 |
| 20260902055848 | 69 | 292 | 4.0 | 0.0 | 0.00 | 0.00 | 0.00 | 41 | 963.4 |
| 20260902055247 | 69 | 341 | 4.0 | 0.0 | 0.00 | 0.00 | 0.00 | 41 | 963.4 |
| 20260902054747 | 69 | 354 | 4.0 | 0.0 | 0.00 | 0.00 | 0.00 | 42 | 963.4 |
| 20260902054245 | 69 | 36 | 5.0 | 0.0 | 0.00 | 0.00 | 0.00 | 45 | 963.4 |
| 20260902053748 | 69 | 337 | 4.0 | 0.0 | 0.00 | 0.00 | 0.00 | 45 | 963.4 |
| 20260902053248 | 69 | 315 | 5.0 | 0.0 | 0.00 | 0.00 | 0.00 | 45 | 963.4 |
| 20260902052746 | 69 | 301 | 5.0 | 0.0 | 0.00 | 0.00 | 0.00 | 45 | 963.4 |
| 20260902052247 | 69 | 302 | 6.0 | 0.0 | 0.00 | 0.00 | 0.00 | 46 | 963.4 |
| 20260902051747 | 69 | 221 | 6.0 | 0.0 | 0.00 | 0.00 | 0.00 | 46 | 963.4 |
| 20260902051248 | 69 | 321 | 5.0 | 0.0 | 0.00 | 0.00 | 0.00 | 47 | 963.4 |
| 20260902050747 | 70 | 280 | 6.0 | 0.0 | 0.00 | 0.00 | 0.00 | 47 | 963.4 |
| 20260902050245 | 69 | 127 | 6.0 | 0.0 | 0.00 | 0.00 | 0.00 | 47 | 963.4 |
| 20260902045745 | 70 | 222 | 6.0 | 0.0 | 0.00 | 0.00 | 0.00 | 47 | 963.4 |
| 20260902045245 | 70 | 234 | 6.0 | 0.0 | 0.00 | 0.00 | 0.00 | 47 | 963.4 |
| 20260902044744 | 70 | 257 | 3.0 | 0.0 | 0.00 | 0.00 | 0.00 | 45 | 963.4 |
| 20260902044242 | 70 | 53 | 4.0 | 0.0 | 0.00 | 0.00 | 0.00 | 45 | 963.4 |
| 20260902043742 | 71 | 258 | 4.0 | 0.0 | 0.00 | 0.00 | 0.00 | 45 | 963.1 |
| 20260902043442 | 71 | 248 | 3.0 | 0.0 | 0.00 | 0.00 | 0.00 | 44 | 963.1 |
| 20260902043042 | 72 | 341 | 0.0 | 0.0 | 0.00 | 0.00 | 0.00 | 41 | 962.8 |
| 20260902040740 | 72 | 296 | 5.0 | 0.0 | 0.00 | 0.00 | 0.00 | 40 | 962.8 |
| 20260902040243 | 72 | 254 | 3.0 | 0.0 | 0.00 | 0.00 | 0.00 | 40 | 962.8 |
| 20260902035803 | 72 | 250 | 3.0 | 0.0 | 0.00 | 0.00 | 0.00 | 39 | 962.8 |
| 20260902035239 | 73 | 268 | 4.0 | 0.0 | 0.00 | 0.00 | 0.00 | 38 | 962.8 |
| 20260902034739 | 73 | 116 | 4.0 | 0.0 | 0.00 | 0.00 | 0.00 | 38 | 962.4 |
| 20260902034238 | 74 | 56 | 3.0 | 0.0 | 0.00 | 0.00 | 0.00 | 37 | 962.4 |
| 20260902033739 | 74 | 40 | 7.0 | 0.0 | 0.00 | 0.00 | 0.00 | 36 | 962.1 |
| 20260902033239 | 75 | 302 | 7.0 | 0.0 | 0.00 | 0.00 | 0.00 | 36 | 962.1 |
| 20260902032738 | 75 | 54 | 6.0 | 0.0 | 0.00 | 0.00 | 0.00 | 35 | 962.1 |
| 20260902032237 | 75 | 333 | 6.0 | 0.0 | 0.00 | 0.00 | 0.00 | 34 | 962.1 |
| 20260902031737 | 75 | 122 | 4.0 | 0.0 | 0.00 | 0.00 | 0.00 | 34 | 962.1 |
| 20260902031238 | 75 | 62 | 3.0 | 0.0 | 0.00 | 0.00 | 0.00 | 33 | 962.1 |
| 20260902030738 | 75 | 339 | 3.0 | 0.0 | 0.00 | 0.00 | 0.00 | 29 | 961.7 |
| 20260902030236 | 76 | 273 | 3.0 | 0.0 | 0.00 | 0.00 | 0.00 | 25 | 961.7 |
| 20260902025740 | 76 | 323 | 2.0 | 0.0 | 0.00 | 0.00 | 0.00 | 23 | 961.7 |
| 20260902025236 | 77 | 153 | 3.0 | 0.0 | 0.00 | 0.00 | 0.00 | 23 | 961.7 |
| 20260902024735 | 77 | 266 | 3.0 | 0.0 | 0.00 | 0.00 | 0.00 | 27 | 961.7 |
| 20260902024235 | 77 | 268 | 3.0 | 0.0 | 0.00 | 0.00 | 0.00 | 23 | 961.7 |